Canadian, TX

10:25 AM CST on December 13, 2019 (GMT -0600)
Hemphill County

Weather History for KHHF - October, 2019

Change the Weather History Date:

Sunday, October 6, 2019

  Actual Average (KPPA) Record (KPPA)
Temperature  
Mean Temperature 58 °F -  
Max Temperature 70 °F 74 °F 88 °F (1979)
Min Temperature 45 °F 48 °F 35 °F (1985)
Degree Days  
Heating Degree Days 8    
Growing Degree Days 8 (Base 50)    
Moisture  
Dew Point 45 °F    
Average Humidity 65    
Maximum Humidity 91    
Minimum Humidity 33    
Precipitation  
Precipitation 0.00 in - - ()
Sea Level Pressure  
Sea Level Pressure 30.17 in    
Wind  
Wind Speed 4 mph (NE)    
Max Wind Speed 20 mph    
Max Gust Speed 26 mph    
Visibility 10 miles    
Events      
Averages and records for this station are not official NWS values.
T = Trace of Precipitation, MM = Missing Value Source: NWS Daily Summary

Daily Weather History Graph

Daily Weather History Graph

Search for Another Location

Airport or City:

Astronomy

Oct. 06, 2019 Rise Set
Actual Time 7:40 AM CDT 7:18 PM CDT
Civil Twilight 7:14 AM CDT 7:43 PM CDT
Nautical Twilight 6:45 AM CDT 8:13 PM CDT
Astronomical Twilight 6:15 AM CDT 8:43 PM CDT
Moon 3:44 PM CDT (10/6) 12:54 AM CDT (10/6)
Length of Visible Light 12h 28m
Length of Day
11h 37m
First Quarter, 60% of the Moon is Illuminated
Oct 6
First Quarter
Oct 13
Full
Oct 21
Last Quarter
Oct 27
New
Nov 4
First Quarter

Hourly Weather History & Observations

Time (CDT) Temp. Windchill Dew Point Humidity Pressure Visibility Wind Dir Wind Speed Gust Speed Precip Events Conditions
12:15 AM 56.3 °F - 46.8 °F 70% 30.05 in 10.0 mi Calm Calm - N/A   Clear
12:35 AM 56.5 °F - 46.4 °F 69% 30.05 in 10.0 mi Calm Calm - N/A   Clear
12:55 AM 55.4 °F - 46.9 °F 73% 30.05 in 10.0 mi Calm Calm - N/A   Clear
1:15 AM 55.4 °F - 47.1 °F 74% 30.05 in 10.0 mi Calm Calm - N/A   Clear
1:35 AM 53.6 °F - 47.3 °F 79% 30.05 in 10.0 mi Calm Calm - N/A   Clear
1:55 AM 53.6 °F - 47.5 °F 80% 30.05 in 10.0 mi Calm Calm - N/A   Clear
2:15 AM 53.2 °F - 47.3 °F 80% 30.05 in 10.0 mi Calm Calm - N/A   Clear
2:35 AM 53.4 °F - 47.3 °F 80% 30.04 in 10.0 mi Calm Calm - N/A   Clear
2:55 AM 51.1 °F - 47.7 °F 88% 30.04 in 10.0 mi Calm Calm - N/A   Clear
3:15 AM 51.3 °F - 47.8 °F 88% 30.04 in 10.0 mi Calm Calm - N/A   Clear
3:35 AM 52.0 °F - 47.7 °F 85% 30.04 in 10.0 mi Calm Calm - N/A   Clear
3:55 AM 51.1 °F - 47.8 °F 89% 30.03 in 10.0 mi Calm Calm - N/A   Clear
4:15 AM 51.1 °F - 48.0 °F 89% 30.04 in 7.0 mi Calm Calm - N/A   Clear
4:35 AM 50.9 °F - 48.4 °F 91% 30.04 in 10.0 mi Calm Calm - N/A   Mostly Cloudy
4:55 AM 52.5 °F - 49.6 °F 90% 30.05 in 10.0 mi Calm Calm - N/A   Overcast
5:15 AM 53.4 °F - 49.5 °F 86% 30.05 in 10.0 mi Calm Calm - N/A   Overcast
5:35 AM 52.7 °F - 49.3 °F 88% 30.06 in 10.0 mi Calm Calm - N/A   Scattered Clouds
5:55 AM 52.7 °F - 49.5 °F 89% 30.06 in 10.0 mi Calm Calm - N/A   Clear
6:15 AM 52.7 °F - 49.5 °F 89% 30.07 in 10.0 mi North 3.5 mph - N/A   Clear
6:35 AM 52.3 °F - 49.1 °F 89% 30.07 in 10.0 mi Calm Calm - N/A   Clear
6:55 AM 52.0 °F - 48.6 °F 88% 30.08 in 10.0 mi Calm Calm - N/A   Clear
7:15 AM 52.3 °F - 48.2 °F 86% 30.08 in 10.0 mi Calm Calm - N/A   Clear
7:35 AM 52.0 °F - 48.2 °F 87% 30.09 in 10.0 mi NNE 3.5 mph - N/A   Clear
7:55 AM 51.6 °F - 48.2 °F 88% 30.09 in 10.0 mi Calm Calm - N/A   Clear
8:15 AM 51.8 °F - 48.4 °F 88% 30.09 in 10.0 mi Calm Calm - N/A   Clear
8:35 AM 53.2 °F - 49.3 °F 86% 30.10 in 10.0 mi Calm Calm - N/A   Clear
8:55 AM 54.9 °F - 50.0 °F 84% 30.11 in 10.0 mi Calm Calm - N/A   Clear
9:15 AM 57.0 °F - 50.2 °F 78% 30.12 in 10.0 mi NE 3.5 mph - N/A   Clear
9:35 AM 59.2 °F - 49.6 °F 71% 30.12 in 10.0 mi ENE 5.8 mph - N/A   Clear
9:55 AM 61.7 °F - 49.3 °F 64% 30.12 in 10.0 mi ENE 8.1 mph - N/A   Clear
10:15 AM 62.6 °F - 48.4 °F 60% 30.13 in 10.0 mi ENE 10.4 mph - N/A   Scattered Clouds
10:35 AM 64.2 °F - 49.6 °F 59% 30.14 in 10.0 mi NE 10.4 mph 17.3 mph N/A   Clear
10:55 AM 63.9 °F - 48.7 °F 58% 30.15 in 10.0 mi NE 11.5 mph - N/A   Clear
11:15 AM 64.8 °F - 48.9 °F 56% 30.16 in 10.0 mi NE 10.4 mph 17.3 mph N/A   Clear
11:35 AM 64.9 °F - 48.9 °F 56% 30.16 in 10.0 mi ENE 12.7 mph - N/A   Mostly Cloudy
11:55 AM 65.8 °F - 49.6 °F 56% 30.16 in 10.0 mi ENE 13.8 mph - N/A   Mostly Cloudy
12:15 PM 67.5 °F - 49.8 °F 53% 30.17 in 10.0 mi NE 15.0 mph - N/A   Mostly Cloudy
12:35 PM 66.6 °F - 48.7 °F 53% 30.17 in 10.0 mi NE 13.8 mph - N/A   Overcast
12:55 PM 64.9 °F - 46.8 °F 52% 30.19 in 10.0 mi NE 16.1 mph 24.2 mph N/A   Overcast
1:15 PM 63.9 °F - 44.6 °F 50% 30.19 in 10.0 mi NE 15.0 mph - N/A   Overcast
1:35 PM 66.0 °F - 43.3 °F 44% 30.19 in 10.0 mi NE 15.0 mph 21.9 mph N/A   Overcast
1:55 PM 65.5 °F - 42.3 °F 43% 30.19 in 10.0 mi NE 11.5 mph - N/A   Overcast
2:15 PM 66.4 °F - 43.3 °F 43% 30.19 in 10.0 mi NE 12.7 mph 17.3 mph N/A   Overcast
2:35 PM 66.7 °F - 41.9 °F 40% 30.19 in 10.0 mi NE 16.1 mph 23.0 mph N/A   Overcast
2:55 PM 66.7 °F - 40.1 °F 38% 30.19 in 10.0 mi NE 17.3 mph 21.9 mph N/A   Overcast
3:15 PM 67.8 °F - 41.0 °F 38% 30.19 in 10.0 mi NNE 18.4 mph 26.5 mph N/A   Overcast
3:35 PM 68.5 °F - 39.9 °F 35% 30.20 in 10.0 mi NNE 16.1 mph 25.3 mph N/A   Overcast
3:55 PM 70.2 °F - 41.7 °F 36% 30.20 in 10.0 mi NE 17.3 mph - N/A   Overcast
4:15 PM 68.9 °F - 39.6 °F 34% 30.21 in 10.0 mi NE 15.0 mph 26.5 mph N/A   Mostly Cloudy
4:35 PM 69.8 °F - 40.8 °F 35% 30.21 in 10.0 mi NE 16.1 mph 23.0 mph N/A   Mostly Cloudy
4:55 PM 69.3 °F - 40.1 °F 35% 30.21 in 10.0 mi NE 16.1 mph 24.2 mph N/A   Mostly Cloudy
5:15 PM 70.0 °F - 39.4 °F 33% 30.22 in 10.0 mi NE 19.6 mph 26.5 mph N/A   Mostly Cloudy
5:35 PM 68.9 °F - 39.0 °F 34% 30.23 in 10.0 mi NNE 18.4 mph 24.2 mph N/A   Scattered Clouds
5:55 PM 68.2 °F - 38.8 °F 34% 30.24 in 10.0 mi NE 18.4 mph 24.2 mph N/A   Clear
6:15 PM 67.5 °F - 37.9 °F 34% 30.24 in 10.0 mi NE 18.4 mph 24.2 mph N/A   Clear
6:35 PM 66.4 °F - 38.5 °F 36% 30.25 in 10.0 mi NE 16.1 mph 23.0 mph N/A   Clear
6:55 PM 65.5 °F - 38.8 °F 38% 30.25 in 10.0 mi NE 10.4 mph - N/A   Clear
7:15 PM 64.2 °F - 39.4 °F 40% 30.26 in 10.0 mi NE 10.4 mph 16.1 mph N/A   Clear
7:35 PM 63.0 °F - 39.7 °F 42% 30.26 in 10.0 mi NE 6.9 mph - N/A   Clear
7:55 PM 61.0 °F - 40.8 °F 47% 30.27 in 10.0 mi NE 5.8 mph - N/A   Clear
8:15 PM 59.7 °F - 41.5 °F 51% 30.28 in 10.0 mi NE 3.5 mph - N/A   Clear
8:35 PM 57.4 °F - 42.4 °F 57% 30.29 in 10.0 mi Calm Calm - N/A   Clear
8:55 PM 56.1 °F - 43.0 °F 61% 30.30 in 10.0 mi Calm Calm - N/A   Clear
9:15 PM 55.8 °F - 43.0 °F 62% 30.31 in 10.0 mi Calm Calm - N/A   Clear
9:35 PM 53.1 °F - 43.7 °F 71% 30.32 in 10.0 mi Calm Calm - N/A   Clear
9:55 PM 53.1 °F - 43.2 °F 69% 30.33 in 10.0 mi Calm Calm - N/A   Clear
10:15 PM 50.4 °F - 43.5 °F 77% 30.34 in 10.0 mi Calm Calm - N/A   Clear
10:35 PM 50.5 °F - 43.5 °F 77% 30.35 in 10.0 mi Calm Calm - N/A   Clear
10:55 PM 47.8 °F - 42.6 °F 82% 30.35 in 10.0 mi Calm Calm - N/A   Clear
11:15 PM 46.6 °F - 42.6 °F 86% 30.36 in 10.0 mi Calm Calm - N/A   Clear
11:35 PM 45.5 °F 44.2 °F 42.4 °F 89% 30.36 in 10.0 mi SW 3.5 mph - N/A   Clear
11:55 PM 45.1 °F - 42.3 °F 90% 30.37 in 10.0 mi Calm Calm - N/A   Clear